Regional Weather Roundup
Issued by NWS Northern Indiana

Home | Current Version | Previous Version | Graphics & Text | Print | Product List | Glossary On
Versions: 1 2 3 4 5 6 7 8 9 10 11 12 13 14 15 16 17 18 19 20 21 22 23 24 25 26 27 28 29 30 31 32 33 34 35 36 37 38 39 40 41 42 43 44 45 46 47 48 49 50
000
ASUS43 KIWX 282300
RWRIWX

KIWX WEATHER ROUNDUP
NATIONAL WEATHER SERVICE NORTHERN INDIANA
700 PM EDT FRI AUG 28 2015

NOTE: "FAIR" INDICATES FEW OR NO CLOUDS BELOW 12,000 FEET WITH NO
SIGNIFICANT WEATHER AND/OR OBSTRUCTIONS TO VISIBILITY.

* THESE STATIONS ARE NOT UNDER NWS QUALITY CONTROL. THEY ALSO MAY NOT
  REPORT WEATHER SUCH AS PRECIPITATION OR FOG.

INZ001>027-290000-
NORTHERN INDIANA

CITY           SKY/WX    TMP DP  RH WIND       PRES   REMARKS
GARY*          CLOUDY    73  63  68 VRB5      30.08F
KNOX*          CLOUDY    72  61  68 CALM      30.09S
SOUTH BEND     CLOUDY    74  61  63 SW3       30.11R
ELKHART*       CLOUDY    75  59  57 CALM      30.11S
GOSHEN         CLOUDY    75  61  61 SE6       30.10F
MONTICELLO*    PTSUNNY   75  60  59 CALM      30.08F
WARSAW*        CLOUDY    73  59  60 CALM      30.11S
ANGOLA*        SUNNY     73  66  78 CALM      30.12F
FORT WAYNE     CLOUDY    73  60  63 SE5       30.12F
PERU/GRISSOM   PTSUNNY   75  60  59 SE5       30.09F

$$
INZ028>050-290000-
CENTRAL INDIANA

CITY           SKY/WX    TMP DP  RH WIND       PRES   REMARKS
LAFAYETTE      PTSUNNY   76  57  51 SE6       30.08S
KOKOMO*        PTSUNNY   73  59  60 SE6       30.11S
MUNCIE*        PTSUNNY   74  57  55 SE7       30.12S
INDIANAPOLIS   PTSUNNY   76  55  48 SE9       30.09S

$$
MIZ043>046-050>051-056>058-064>065-071>073-077>080-290000-
SOUTHWEST LOWER MICHIGAN

CITY           SKY/WX    TMP DP  RH WIND       PRES   REMARKS
BATTLE CREEK   CLOUDY    74  60  61 SW3       30.13R
BENTON HARBOR  CLOUDY    72  64  76 CALM      30.10R
COLDWATER*     CLOUDY    73  62  69 CALM      30.12S
HILLSDALE*     CLOUDY    72  64  76 CALM      30.13F
HOLLAND        CLOUDY    72  61  68 SW5       30.12R
GRAND RAPIDS   CLOUDY    73  60  63 W5        30.12R
KALAMAZOO      CLOUDY    74  60  61 CALM      30.11S
STURGIS*       CLOUDY    73  63  68 S3        30.11S
THREE RIVERS*  FAIR      74  62  66 CALM      30.11S

$$
OHZ001>008-015>018-024>025-290000-
NORTHWEST OHIO

CITY           SKY/WX    TMP DP  RH WIND       PRES   REMARKS
DEFIANCE       PTSUNNY   76  57  51 S3        30.12F
FINDLAY        PTSUNNY   75  59  57 CALM      30.13F
TOLEDO EXPRESS PTSUNNY   71  62  73 CALM      30.13S
TOLEDO METCALF PTSUNNY   76  55  48 W3        30.13F
LIMA           PTSUNNY   74  56  53 SW3       30.14F

$$
AND FOR LAKE MICHIGAN COASTAL AND OPEN LAKE BUOY OBSERVATIONS

STATION/POSITION TEMP    WIND        PRES    VSBY  WAVE
                 AIR SEA DIR/SP/G                  HT/PER
                 (F)     (DEG/KT/KT) (MB)    (MI)  (FT/S)
MICHIGAN CITY     70      20/  3/  4   N/A
BURNS HARBOR      72      40/  6/  6 1019.3S
SAINT JOSEPH      74        CALM     1020.0F
SOUTH LAKE BUOY   69 69  160/  4/  4 1019.0R
4 MI NW BRIDGMAN  71 72   90/  4/  4   N/A           0
MICHIGAN CITY     71 72   80/  4/  6   N/A           0

$$
&&



USA.gov is the U.S. government's official web portal to all federal, state and local government web resources and services.